Weather History for Oklahoma City / Page Muni, OK

Change the Weather History Date:

Monday, April 28, 2014

  Actual Average (KOKC) Record (KOKC)
Temperature  
Mean Temperature 60 °F 65 °F  
Max Temperature 69 °F 76 °F 93 °F (1902)
Min Temperature 50 °F 54 °F 35 °F (2008)
Degree Days  
Heating Degree Days 6 3  
Month to date heating degree days 167  
Since 1 July heating degree days 3326  
Cooling Degree Days 0 3  
Month to date cooling degree days 47  
Year to date cooling degree days 60  
Growing Degree Days 10 (Base 50)    
Moisture  
Dew Point 40 °F    
Average Humidity 55    
Maximum Humidity 82    
Minimum Humidity 27    
Precipitation  
Precipitation 0.00 in 0.13 in 1.97 in (1960)
Month to date precipitation 2.80  
Year to date precipitation 8.83  
Snow  
Snow 0.00 in 0.00 in 0.00 in ()
Month to date snowfall 0.0  
Since 1 July snowfall 7.6  
Snow Depth -    
Sea Level Pressure  
Sea Level Pressure 29.62 in    
Wind  
Wind Speed 11 mph (West)    
Max Wind Speed 30 mph    
Max Gust Speed 44 mph    
Visibility 9 miles    
Events Rain    
T = Trace of Precipitation, MM = Missing Value Source: NWS Daily Summary

Daily Weather History Graph

Daily Weather History Graph

Search for Another Location

Airport:

Trip Planner

Search our weather history database for the weather conditions in past years. The results will help you decide how hot, cold, wet, or windy it might be!

Date:

Astronomy

Apr. 28, 2014 Rise Set
Actual Time 6:42 AM CDT 8:15 PM CDT
Civil Twilight 6:15 AM CDT 8:42 PM CDT
Nautical Twilight 5:43 AM CDT 9:14 PM CDT
Astronomical Twilight 5:09 AM CDT 9:49 PM CDT
Moon 6:19 AM CDT (4/28) 7:55 PM CDT (4/28)
Length of Visible Light 14h 26m
Length of Day
13h 32m
Waning Crescent, 0% of the Moon is Illuminated
Apr 28
Waning Crescent
Apr 29
New
May 6
First Quarter
May 14
Full
May 21
Last Quarter

Hourly Weather History & Observations

Time (CDT) Temp. Dew Point Humidity Pressure Visibility Wind Dir Wind Speed Gust Speed Precip Events Conditions
12:15 AM 60.8 °F 41.0 °F 48% 29.46 in 5.0 mi NW 12.7 mph - N/A   Haze
12:35 AM 59.0 °F 41.0 °F 51% 29.47 in 5.0 mi NW 10.4 mph - N/A   Haze
12:55 AM 57.2 °F 41.0 °F 55% 29.48 in 5.0 mi West 8.1 mph - N/A   Haze
1:15 AM 57.2 °F 41.0 °F 55% 29.48 in 5.0 mi WNW 12.7 mph - N/A   Haze
1:35 AM 57.2 °F 41.0 °F 55% 29.48 in 5.0 mi WNW 8.1 mph - N/A   Haze
1:55 AM 55.4 °F 41.0 °F 58% 29.48 in 5.0 mi West 8.1 mph - N/A   Haze
2:15 AM 55.4 °F 41.0 °F 58% 29.49 in 5.0 mi West 8.1 mph - N/A   Haze
2:35 AM 53.6 °F 42.8 °F 67% 29.50 in 5.0 mi West 8.1 mph - N/A   Haze
2:55 AM 53.6 °F 41.0 °F 62% 29.51 in 5.0 mi West 8.1 mph - N/A   Haze
3:15 AM 50.0 °F 42.8 °F 76% 29.51 in 5.0 mi West 9.2 mph - N/A   Haze
3:55 AM 53.6 °F 41.0 °F 62% 29.53 in 7.0 mi West 9.2 mph - N/A   Mostly Cloudy
4:15 AM 53.6 °F 41.0 °F 62% 29.54 in 8.0 mi West 10.4 mph - N/A   Mostly Cloudy
4:35 AM 53.6 °F 39.2 °F 58% 29.55 in 10.0 mi West 8.1 mph - N/A   Partly Cloudy
5:15 AM 51.8 °F 39.2 °F 62% 29.56 in 10.0 mi WNW 11.5 mph - N/A   Scattered Clouds
5:35 AM 51.8 °F 37.4 °F 58% 29.57 in 10.0 mi NW 15.0 mph 19.6 mph N/A   Partly Cloudy
5:55 AM 50.0 °F 37.4 °F 62% 29.57 in 10.0 mi WNW 11.5 mph - N/A   Clear
6:15 AM 50.0 °F 37.4 °F 62% 29.59 in 10.0 mi West 10.4 mph - N/A   Clear
7:55 AM 51.8 °F 39.2 °F 62% 29.64 in 10.0 mi West 9.2 mph - N/A   Clear
8:15 AM 53.6 °F 37.4 °F 54% 29.65 in 10.0 mi WNW 10.4 mph - N/A   Clear
8:35 AM 55.4 °F 37.4 °F 51% 29.66 in 10.0 mi WNW 16.1 mph 21.9 mph N/A   Clear
8:55 AM 55.4 °F 37.4 °F 51% 29.67 in 10.0 mi WNW 10.4 mph 18.4 mph N/A   Clear
9:15 AM 57.2 °F 37.4 °F 48% 29.67 in 10.0 mi NW 11.5 mph 19.6 mph N/A   Clear
9:35 AM 59.0 °F 37.4 °F 45% 29.67 in 10.0 mi WNW 15.0 mph 19.6 mph N/A   Clear
9:55 AM 59.0 °F 35.6 °F 42% 29.68 in 10.0 mi NW 16.1 mph 24.2 mph N/A   Clear
10:15 AM 57.2 °F 37.4 °F 48% 29.69 in 10.0 mi West 16.1 mph 21.9 mph N/A   Clear
10:35 AM 57.2 °F 37.4 °F 48% 29.68 in 10.0 mi WNW 12.7 mph - N/A   Clear
11:15 AM 59.0 °F 37.4 °F 45% 29.68 in 10.0 mi West 15.0 mph - N/A   Clear
11:55 AM 64.4 °F 37.4 °F 37% 29.67 in 10.0 mi WNW 15.0 mph 21.9 mph N/A   Clear
12:15 PM 62.6 °F 39.2 °F 42% 29.65 in 10.0 mi West 10.4 mph - N/A   Clear
12:35 PM 66.2 °F 39.2 °F 37% 29.65 in 10.0 mi WNW 15.0 mph 19.6 mph N/A   Clear
1:15 PM 64.4 °F 39.2 °F 40% 29.65 in 10.0 mi West 11.5 mph - N/A   Clear
1:35 PM 66.2 °F 39.2 °F 37% 29.64 in 10.0 mi West 11.5 mph - N/A   Clear
1:55 PM 66.2 °F 39.2 °F 37% 29.64 in 10.0 mi WSW 12.7 mph 17.3 mph N/A   Clear
2:15 PM 68.0 °F 37.4 °F 33% 29.63 in 10.0 mi WSW 17.3 mph 20.7 mph N/A   Clear
2:35 PM 69.8 °F 33.8 °F 27% 29.63 in 10.0 mi West 17.3 mph 24.2 mph N/A   Partly Cloudy
2:55 PM 68.0 °F 35.6 °F 30% 29.62 in 10.0 mi WNW 15.0 mph 21.9 mph N/A   Scattered Clouds
3:15 PM 66.2 °F 35.6 °F 32% 29.63 in 10.0 mi NW 19.6 mph 24.2 mph N/A   Overcast
3:35 PM 62.6 °F 39.2 °F 42% 29.67 in 6.0 mi WNW 29.9 mph 41.4 mph N/A Rain Light Rain
3:55 PM 57.2 °F 39.2 °F 51% 29.65 in 5.0 mi SW 12.7 mph - N/A   Haze
4:15 PM 59.0 °F 41.0 °F 51% 29.64 in 10.0 mi SW 10.4 mph - N/A   Partly Cloudy
4:35 PM 59.0 °F 41.0 °F 51% 29.65 in 10.0 mi WSW 19.6 mph 27.6 mph N/A   Scattered Clouds
4:55 PM 60.8 °F 39.2 °F 45% 29.64 in 10.0 mi WSW 15.0 mph 23.0 mph N/A   Partly Cloudy
5:15 PM 64.4 °F 41.0 °F 42% 29.64 in 10.0 mi WSW 12.7 mph - N/A   Clear
5:35 PM 62.6 °F 41.0 °F 45% 29.66 in 10.0 mi West 28.8 mph 43.7 mph N/A   Scattered Clouds
5:55 PM 59.0 °F 41.0 °F 51% 29.69 in 10.0 mi West 25.3 mph 36.8 mph N/A   Mostly Cloudy
6:15 PM 57.2 °F 41.0 °F 55% 29.68 in 10.0 mi WSW 16.1 mph 31.1 mph N/A   Mostly Cloudy
6:35 PM 57.2 °F 41.0 °F 55% 29.66 in 10.0 mi SSW 11.5 mph - N/A   Partly Cloudy
6:55 PM 57.2 °F 42.8 °F 59% 29.66 in 10.0 mi SW 5.8 mph - N/A   Clear
7:15 PM 57.2 °F 44.6 °F 63% 29.65 in 10.0 mi SSW 4.6 mph - N/A   Partly Cloudy
7:35 PM 55.4 °F 46.4 °F 72% 29.65 in 10.0 mi South 4.6 mph - N/A   Scattered Clouds
7:55 PM 55.4 °F 46.4 °F 72% 29.64 in 10.0 mi South 5.8 mph - N/A   Scattered Clouds
8:15 PM 55.4 °F 46.4 °F 72% 29.64 in 10.0 mi SSW 5.8 mph - N/A   Partly Cloudy
8:35 PM 55.4 °F 42.8 °F 63% 29.64 in 10.0 mi SW 4.6 mph - N/A   Clear
8:55 PM 55.4 °F 41.0 °F 58% 29.65 in 10.0 mi WSW 4.6 mph - N/A   Clear
9:15 PM 53.6 °F 42.8 °F 67% 29.66 in 10.0 mi WSW 5.8 mph - N/A   Unknown
9:35 PM 53.6 °F 42.8 °F 67% 29.67 in 10.0 mi SW 5.8 mph - N/A   Unknown
9:55 PM 51.8 °F 44.6 °F 76% 29.69 in 10.0 mi SW 4.6 mph - N/A   Unknown
10:15 PM 50.0 °F 44.6 °F 82% 29.71 in 10.0 mi WSW 6.9 mph - N/A   Unknown
10:35 PM 50.0 °F 44.6 °F 82% 29.72 in 10.0 mi West 5.8 mph - N/A   Unknown
10:55 PM 51.8 °F 42.8 °F 71% 29.72 in 10.0 mi WNW 6.9 mph - N/A   Scattered Clouds
11:15 PM 51.8 °F 41.0 °F 67% 29.72 in 10.0 mi NNW 9.2 mph - N/A   Partly Cloudy
11:35 PM 50.0 °F 39.2 °F 66% 29.73 in 10.0 mi NNW 9.2 mph - N/A   Clear
11:55 PM 50.0 °F 39.2 °F 66% 29.74 in 10.0 mi NNW 9.2 mph - N/A   Clear